Location: Caltech
(34.1382°N, 118.1253°W)
Time: 12:52:51
(UTC-08:00)

Meteor 2-4 Rocket - Visible Passes

Search period start: 01 March 2015 00:00
Search period end: 11 March 2015 01:00
Orbit: 798 x 910 km, 81.2° (Epoch: 28 February)

Date Brightness Start Highest point End Pass type
(mag) Time Alt. Az. Time Alt. Az. Time Alt. Az.
01 Mar 4.3 18:30:21 10° NNW 18:35:40 60° W 18:41:06 10° S visible
02 Mar 6.6 05:54:42 10° SE 05:58:45 22° E 06:02:54 10° NE visible
02 Mar 4.2 18:19:21 10° NNW 18:24:44 64° W 18:30:12 10° S visible
03 Mar 6.7 05:43:58 10° SE 05:47:49 20° E 05:51:48 10° NE visible
03 Mar 4.1 18:08:22 10° NNW 18:13:47 69° W 18:19:17 10° S visible
04 Mar 6.7 05:33:15 10° SE 05:36:52 19° E 05:40:40 10° NE visible
05 Mar 6.8 05:22:33 10° SE 05:25:56 18° E 05:29:31 10° NE visible
06 Mar 6.9 05:11:53 10° SE 05:15:00 16° E 05:18:22 10° NE visible
07 Mar 6.9 05:01:14 10° ESE 05:04:04 15° E 05:07:10 10° NE visible
08 Mar 6.9 05:50:39 10° ESE 05:53:08 14° E 05:55:56 10° ENE visible
09 Mar 7.0 05:40:06 10° ESE 05:42:11 13° E 05:44:38 10° ENE visible
10 Mar 7.0 05:29:40 10° ESE 05:31:16 12° E 05:33:14 10° ENE visible
10 Mar 7.4 19:38:08 10° WNW 19:39:37 11° W 19:40:40 10° W visible
